When you browse on this site, cookies collect data to enhance your experience and personalize the content and advertising you see.
Visit our Privacy Policy to learn more. By continuing to use the site, you agree to this use of cookies and data.
  • En España
  • Lista de países
  • Para 7 días
  • Temperatura del agua
  • El tiempo en el mapa
  • Informadores
  • user-avatar
    Iniciar sesión

    Tiempo cada hora Bishops Stortford

    Hoy, 20 Febrero, Jueves

    Tiempo Temperatura Precipitaciones Viento Presión Humedad
    00:00 +6°C° 0 mm 5 mps 752 mmHg 90%
    01:00 +7°C° 0 mm 6 mps 752 mmHg 88%
    02:00 +7°C° 0 mm 6 mps 751 mmHg 86%
    03:00 +6°C° 0 mm 7 mps 751 mmHg 84%
    04:00 +6°C° 0 mm 7 mps 750 mmHg 84%
    05:00 +6°C° 0 mm 7 mps 750 mmHg 83%
    06:00 +6°C° 0 mm 8 mps 750 mmHg 83%
    07:00 +7°C° 0 mm 8 mps 749 mmHg 83%
    08:00 +7°C° 0 mm 8 mps 749 mmHg 82%
    09:00 +7°C° 0 mm 9 mps 748 mmHg 82%
    10:00 +7°C° 0.2 mm 10 mps 747 mmHg 83%
    11:00 +7°C° 0.2 mm 11 mps 747 mmHg 83%
    12:00 +7°C° 0.2 mm 11 mps 746 mmHg 84%
    13:00 +6°C° 1.4 mm 10 mps 747 mmHg 83%
    14:00 +3°C° 1.4 mm 9 mps 747 mmHg 83%
    15:00 +1°C° 1.4 mm 8 mps 748 mmHg 82%
    16:00 +1°C° 0.1 mm 8 mps 750 mmHg 79%
    17:00 +2°C° 0.1 mm 7 mps 751 mmHg 75%
    18:00 +2°C° 0.1 mm 7 mps 753 mmHg 72%
    19:00 0°C° 0 mm 7 mps 754 mmHg 72%
    20:00 0°C° 0 mm 7 mps 755 mmHg 73%
    21:00 +1°C° 0 mm 6 mps 756 mmHg 74%
    22:00 +1°C° 0 mm 6 mps 757 mmHg 74%
    23:00 0°C° 0 mm 7 mps 758 mmHg 75%

    Mañana, 21 Febrero, Viernes

    Tiempo Temperatura Precipitaciones Viento Presión Humedad
    00:00 0°C° 0 mm 7 mps 759 mmHg 76%
    01:00 -1°C° 0 mm 6 mps 759 mmHg 77%
    02:00 -1°C° 0 mm 6 mps 759 mmHg 78%
    03:00 -1°C° 0 mm 6 mps 759 mmHg 79%
    04:00 -1°C° 0 mm 6 mps 760 mmHg 80%
    05:00 0°C° 0 mm 5 mps 760 mmHg 81%
    06:00 +1°C° 0 mm 5 mps 760 mmHg 82%
    13:00 +6°C° 0 mm 9 mps 759 mmHg 73%
    14:00 +6°C° 0 mm 9 mps 759 mmHg 73%
    15:00 +7°C° 0 mm 9 mps 758 mmHg 73%
    16:00 +6°C° 0 mm 8 mps 758 mmHg 74%
    17:00 +6°C° 0 mm 8 mps 758 mmHg 76%
    18:00 +6°C° 0 mm 8 mps 757 mmHg 77%
    19:00 +6°C° 0 mm 9 mps 757 mmHg 77%
    20:00 +6°C° 0 mm 9 mps 757 mmHg 77%
    21:00 +6°C° 0 mm 10 mps 756 mmHg 76%
    22:00 +6°C° 0 mm 10 mps 756 mmHg 77%
    23:00 +6°C° 0 mm 10 mps 756 mmHg 77%

    Pasado mañana, 22 Febrero, Sábado

    Tiempo Temperatura Precipitaciones Viento Presión Humedad
    00:00 +6°C° 0 mm 10 mps 755 mmHg 77%
    01:00 +6°C° 0 mm 10 mps 755 mmHg 78%
    02:00 +6°C° 0 mm 10 mps 754 mmHg 78%
    03:00 +7°C° 0 mm 10 mps 754 mmHg 79%
    04:00 +7°C° 0 mm 10 mps 753 mmHg 80%
    05:00 +7°C° 0 mm 10 mps 753 mmHg 82%
    06:00 +8°C° 0 mm 10 mps 753 mmHg 83%
    07:00 +8°C° 0.1 mm 10 mps 753 mmHg 83%
    08:00 +9°C° 0.1 mm 10 mps 753 mmHg 82%
    09:00 +9°C° 0.1 mm 10 mps 753 mmHg 82%
    10:00 +9°C° 0.1 mm 10 mps 754 mmHg 77%
    11:00 +9°C° 0.1 mm 11 mps 754 mmHg 72%
    12:00 +9°C° 0.1 mm 11 mps 755 mmHg 67%
    13:00 +9°C° 0 mm 11 mps 755 mmHg 67%
    14:00 +8°C° 0 mm 10 mps 755 mmHg 67%
    15:00 +8°C° 0 mm 10 mps 755 mmHg 67%
    16:00 +7°C° 0 mm 9 mps 755 mmHg 67%
    17:00 +7°C° 0 mm 9 mps 756 mmHg 68%
    18:00 +6°C° 0 mm 8 mps 756 mmHg 68%
    19:00 +5°C° 0 mm 8 mps 757 mmHg 69%
    20:00 +5°C° 0 mm 7 mps 757 mmHg 69%
    21:00 +5°C° 0 mm 7 mps 758 mmHg 70%
    22:00 +4°C° 0 mm 7 mps 758 mmHg 72%
    23:00 +4°C° 0 mm 7 mps 758 mmHg 73%

    23 Febrero, Domingo

    Tiempo Temperatura Precipitaciones Viento Presión Humedad
    00:00 +4°C° 0 mm 7 mps 759 mmHg 75%
    01:00 +4°C° 0 mm 7 mps 759 mmHg 75%
    02:00 +4°C° 0 mm 6 mps 758 mmHg 76%
    03:00 +4°C° 0 mm 6 mps 758 mmHg 76%
    04:00 +5°C° 0.4 mm 5 mps 758 mmHg 81%
    05:00 +5°C° 0.4 mm 4 mps 757 mmHg 86%
    06:00 +5°C° 0.4 mm 3 mps 757 mmHg 91%
    07:00 +5°C° 1.2 mm 3 mps 756 mmHg 93%
    08:00 +7°C° 1.2 mm 3 mps 755 mmHg 94%
    09:00 +7°C° 1.2 mm 3 mps 755 mmHg 96%
    10:00 +6°C° 0.8 mm 4 mps 755 mmHg 94%
    11:00 +7°C° 0.8 mm 5 mps 754 mmHg 93%
    12:00 +7°C° 0.8 mm 6 mps 754 mmHg 92%
    13:00 +7°C° 0.1 mm 6 mps 755 mmHg 88%
    14:00 +7°C° 0.1 mm 6 mps 756 mmHg 85%
    15:00 +7°C° 0.1 mm 6 mps 757 mmHg 82%
    16:00 +6°C° 0 mm 5 mps 758 mmHg 83%
    17:00 +5°C° 0 mm 4 mps 758 mmHg 85%
    18:00 +4°C° 0 mm 3 mps 759 mmHg 86%
    19:00 +3°C° 0 mm 3 mps 760 mmHg 86%
    20:00 +4°C° 0 mm 2 mps 761 mmHg 86%
    21:00 +3°C° 0 mm 2 mps 761 mmHg 86%
    22:00 +4°C° 0 mm 1 mps 761 mmHg 84%
    23:00 +4°C° 0 mm 1 mps 761 mmHg 83%

    24 Febrero, Lunes

    Tiempo Temperatura Precipitaciones Viento Presión Humedad
    00:00 +3°C° 0 mm 0 mps 761 mmHg 81%
    01:00 +4°C° 0 mm 2 mps 760 mmHg 81%
    02:00 +3°C° 0 mm 3 mps 760 mmHg 82%
    03:00 +3°C° 0 mm 4 mps 759 mmHg 82%
    04:00 +3°C° 0.1 mm 5 mps 758 mmHg 86%
    05:00 +4°C° 0.1 mm 6 mps 757 mmHg 90%
    06:00 +5°C° 0.1 mm 6 mps 755 mmHg 95%
    07:00 +6°C° 0 mm 7 mps 754 mmHg 93%
    08:00 +9°C° 0 mm 8 mps 754 mmHg 91%
    09:00 +10°C° 0 mm 9 mps 753 mmHg 89%
    10:00 +9°C° 0 mm 10 mps 752 mmHg 86%
    11:00 +9°C° 0 mm 10 mps 751 mmHg 83%
    12:00 +11°C° 0 mm 11 mps 751 mmHg 80%
    13:00 +11°C° 0.2 mm 10 mps 750 mmHg 83%
    14:00 +9°C° 0.2 mm 10 mps 750 mmHg 85%
    15:00 +9°C° 0.2 mm 10 mps 749 mmHg 87%
    16:00 +10°C° 0 mm 9 mps 749 mmHg 84%
    17:00 +8°C° 0 mm 9 mps 749 mmHg 81%
    18:00 +7°C° 0 mm 8 mps 750 mmHg 78%
    19:00 +6°C° 0 mm 8 mps 750 mmHg 78%
    20:00 +5°C° 0 mm 7 mps 751 mmHg 77%
    21:00 +4°C° 0 mm 7 mps 751 mmHg 77%
    22:00 +4°C° 0 mm 7 mps 751 mmHg 77%
    23:00 +3°C° 0 mm 6 mps 751 mmHg 78%

    25 Febrero, Martes

    Tiempo Temperatura Precipitaciones Viento Presión Humedad
    00:00 +3°C° 0 mm 6 mps 752 mmHg 78%
    01:00 +2°C° 0 mm 6 mps 751 mmHg 78%
    02:00 +2°C° 0 mm 6 mps 751 mmHg 77%
    03:00 +2°C° 0 mm 6 mps 751 mmHg 77%
    04:00 +2°C° 0 mm 5 mps 751 mmHg 78%
    05:00 +1°C° 0 mm 5 mps 751 mmHg 79%
    06:00 +1°C° 0 mm 5 mps 751 mmHg 81%
    07:00 +2°C° 0 mm 5 mps 751 mmHg 79%
    08:00 +2°C° 0 mm 5 mps 751 mmHg 77%
    09:00 +3°C° 0 mm 5 mps 751 mmHg 76%
    10:00 +4°C° 0 mm 6 mps 750 mmHg 73%
    11:00 +4°C° 0 mm 6 mps 750 mmHg 70%
    12:00 +5°C° 0 mm 6 mps 749 mmHg 67%
    13:00 +5°C° 0.1 mm 7 mps 748 mmHg 66%
    14:00 +6°C° 0.1 mm 7 mps 748 mmHg 66%
    15:00 +6°C° 0.1 mm 7 mps 747 mmHg 66%
    16:00 +5°C° 0 mm 6 mps 746 mmHg 70%
    17:00 +5°C° 0 mm 5 mps 745 mmHg 75%
    18:00 +3°C° 0 mm 5 mps 745 mmHg 79%
    19:00 +3°C° 0.1 mm 5 mps 744 mmHg 80%
    20:00 +3°C° 0.1 mm 6 mps 743 mmHg 81%
    21:00 +3°C° 0.1 mm 6 mps 743 mmHg 81%
    22:00 +3°C° 0.1 mm 7 mps 742 mmHg 81%
    23:00 +3°C° 0.1 mm 7 mps 741 mmHg 81%
    Mostrar más